FW0782 Weather Reports


time (UTC)temp
C
wind
direction
speed
KPH
gust
KPH
rain 1hr
cm
rain 24hr
cm
rain mn
cm
humidity
%
barometer
mb
20260507080218 11 101 8.0 19.3 0.00 0.00 0.00 75 1016.2
20260507080019 11 100 9.7 17.7 0.00 0.00 0.00 75 1015.9
20260507075718 12 88 9.7 14.5 0.00 0.00 0.00 76 1016.2
20260507075218 11 82 8.0 12.9 0.00 0.00 0.00 77 1016.2
20260507075019 11 85 8.0 12.9 0.00 0.00 0.00 77 1015.9
20260507074718 11 98 9.7 14.5 0.00 0.00 0.00 76 1016.1
20260507074219 11 74 6.4 14.5 0.00 0.00 0.00 77 1016.1
20260507074019 11 68 6.4 11.3 0.00 0.00 0.00 76 1015.8
20260507073718 11 69 6.4 14.5 0.00 0.00 0.00 77 1016.1
20260507073219 11 63 9.7 14.5 0.00 0.00 0.00 78 1016.1
20260507073019 11 69 8.0 12.9 0.00 0.00 0.00 77 1015.9
20260506210218 10 55 0.0 0.0 0.00 0.00 0.00 74 1012.7
20260506210018 10 0 0.0 0.0 0.00 0.00 0.00 74 1012.3
20260506205219 10 55 0.0 0.0 0.00 0.00 0.00 74 1012.6
20260506205018 10 0 0.0 0.0 0.00 0.00 0.00 74 1012.3
20260506204719 10 55 0.0 0.0 0.00 0.00 0.00 74 1012.6
20260506204018 10 0 0.0 0.0 0.00 0.00 0.00 74 1012.2
20260506203718 10 55 0.0 0.0 0.00 0.00 0.00 74 1012.5
20260506200219 11 55 0.0 0.0 0.00 0.00 0.00 71 1012.4
20260506200019 11 0 0.0 0.0 0.00 0.00 0.00 71 1012.0
20260506195718 11 55 0.0 0.0 0.00 0.00 0.00 70 1012.3
20260506195219 11 55 0.0 0.0 0.00 0.00 0.00 70 1012.3
20260506195019 11 0 0.0 0.0 0.00 0.00 0.00 70 1012.0
20260506194718 11 55 0.0 0.0 0.00 0.00 0.00 70 1012.2
20260506194219 11 55 0.0 0.0 0.00 0.00 0.00 69 1012.1
20260506194020 11 0 0.0 0.0 0.00 0.00 0.00 69 1011.8
20260506193718 11 55 0.0 0.0 0.00 0.00 0.00 69 1012.1
20260506191021 11 0 0.0 0.0 0.00 0.00 0.00 67 1011.6
20260506190721 12 55 0.0 0.0 0.00 0.00 0.00 66 1011.9
20260506190021 12 56 3.2 6.4 0.00 0.00 0.00 66 1011.4
20260506185721 12 55 3.2 8.0 0.00 0.00 0.00 66 1011.7
20260506185022 12 56 4.8 8.0 0.00 0.00 0.00 65 1011.3
20260506184721 12 55 4.8 8.0 0.00 0.00 0.00 65 1011.6
20260506184221 12 55 3.2 9.7 0.00 0.00 0.00 65 1011.5
20260506184022 12 55 3.2 9.7 0.00 0.00 0.00 65 1011.2
20260506183721 12 55 4.8 9.7 0.00 0.00 0.00 66 1011.5
20260506183221 12 55 8.0 14.5 0.00 0.00 0.00 67 1011.5
20260506183021 12 56 9.7 14.5 0.00 0.00 0.00 68 1011.2
20260506181724 13 15 6.4 11.3 0.00 0.00 0.00 72 1011.2
20260506181220 13 53 8.0 12.9 0.00 0.00 0.00 71 1011.1
20260506180721 13 54 8.0 16.1 0.00 0.00 0.00 71 1011.0
20260506180221 13 53 9.7 12.9 0.00 0.00 0.00 70 1010.9
20260506180021 13 32 8.0 12.9 0.00 0.00 0.00 70 1010.5
20260506175721 13 349 9.7 19.3 0.00 0.00 0.00 69 1010.8
20260506175221 13 44 8.0 14.5 0.00 0.00 0.00 69 1010.8
20260506175021 13 16 8.0 14.5 0.00 0.00 0.00 70 1010.5
20260506174721 13 10 9.7 20.9 0.00 0.00 0.00 70 1010.8
20260506174021 13 26 6.4 12.9 0.00 0.00 0.00 69 1010.4
20260506173721 13 55 9.7 16.1 0.00 0.00 0.00 69 1010.7
20260506173221 13 20 8.0 14.5 0.00 0.00 0.00 68 1010.6
20260506173021 13 54 8.0 14.5 0.00 0.00 0.00 69 1010.3
20260506172221 13 2 8.0 19.3 0.00 0.00 0.00 70 1010.6
20260506172021 13 5 8.0 16.1 0.00 0.00 0.00 70 1010.3
20260506171720 13 21 4.8 22.5 0.00 0.00 0.00 70 1010.5
20260506171221 13 1 9.7 20.9 0.00 0.00 0.00 70 1010.5
20260506171021 13 1 9.7 20.9 0.00 0.00 0.00 70 1010.2
20260506170721 13 11 9.7 19.3 0.00 0.00 0.00 70 1010.4
20260506165720 13 8 8.0 19.3 0.00 0.00 0.00 69 1010.5
20260506165021 13 354 11.3 19.3 0.00 0.00 0.00 69 1010.1
20260506164720 13 37 4.8 11.3 0.00 0.00 0.00 68 1010.3
20260506164221 13 347 8.0 16.1 0.00 0.00 0.00 68 1010.3
20260506164020 13 39 6.4 12.9 0.00 0.00 0.00 68 1010.0
20260506163721 13 28 11.3 29.0 0.00 0.00 0.00 69 1010.3
20260506163021 14 14 8.0 24.1 0.00 0.00 0.00 69 1009.9
20260506162220 14 1 9.7 24.1 0.00 0.00 0.00 70 1010.2
20260506161721 14 351 16.1 33.8 0.00 0.00 0.00 70 1010.2
20260506161221 13 355 11.3 24.1 0.00 0.00 0.00 70 1010.3
20260506161020 13 351 14.5 24.1 0.00 0.00 0.00 70 1009.9
20260506160721 13 356 11.3 20.9 0.00 0.00 0.00 71 1010.3
20260506160221 13 351 11.3 24.1 0.00 0.00 0.00 69 1010.3
20260506160022 14 351 12.9 24.1 0.00 0.00 0.00 69 1009.9
20260506155720 14 5 9.7 19.3 0.00 0.00 0.00 70 1010.3
20260506155221 14 355 9.7 19.3 0.00 0.00 0.00 71 1010.3
20260506155021 14 346 11.3 19.3 0.00 0.00 0.00 72 1009.9
20260506154720 15 12 11.3 24.1 0.00 0.00 0.00 71 1010.3
20260506154221 14 7 11.3 22.5 0.00 0.00 0.00 70 1010.3
20260506154022 14 11 8.0 12.9 0.00 0.00 0.00 70 1010.0
20260506153721 15 2 11.3 24.1 0.00 0.00 0.00 70 1010.3
20260506153221 15 3 9.7 19.3 0.00 0.00 0.00 70 1010.3
20260506153021 15 357 9.7 16.1 0.00 0.00 0.00 70 1009.9
20260506152721 15 351 14.5 32.2 0.00 0.00 0.00 70 1010.3
20260506152221 15 349 11.3 25.7 0.00 0.00 0.00 72 1010.3
20260506152021 15 347 14.5 25.7 0.00 0.00 0.00 71 1010.0
20260506151720 15 343 11.3 22.5 0.00 0.00 0.00 72 1010.2
20260506151221 15 352 12.9 22.5 0.00 0.00 0.00 71 1010.3
20260506151021 15 342 14.5 24.1 0.00 0.00 0.00 71 1010.0
20260506150720 15 342 12.9 22.5 0.00 0.00 0.00 72 1010.2
20260506150220 15 341 9.7 24.1 0.00 0.00 0.00 70 1010.2
20260506150020 15 341 11.3 19.3 0.00 0.00 0.00 70 1009.9
20260506145720 15 339 9.7 20.9 0.00 0.00 0.00 71 1010.2
20260506145221 15 358 11.3 22.5 0.00 0.00 0.00 68 1010.3
20260506144721 15 54 8.0 19.3 0.00 0.00 0.00 69 1010.2
20260506144220 15 9 9.7 22.5 0.00 0.00 0.00 68 1010.2
20260506144021 15 354 14.5 22.5 0.00 0.00 0.00 69 1010.0
20260506143720 15 30 9.7 24.1 0.00 0.00 0.00 68 1010.2
20260506143220 15 27 12.9 22.5 0.00 0.00 0.00 71 1010.2
20260506142721 15 355 8.0 19.3 0.00 0.00 0.00 69 1010.1
20260506142220 15 344 12.9 24.1 0.00 0.00 0.00 72 1010.1
20260506141720 15 27 9.7 22.5 0.00 0.00 0.00 70 1010.1
20260506141220 15 2 11.3 24.1 0.00 0.00 0.00 70 1010.2
20260506141021 15 7 12.9 20.9 0.00 0.00 0.00 69 1009.8
20260506140220 15 357 12.9 25.7 0.00 0.00 0.00 71 1010.3
20260506135221 15 337 11.3 20.9 0.00 0.00 0.00 71 1010.2
20260506135021 15 15 11.3 19.3 0.00 0.00 0.00 70 1009.9
20260506134720 15 354 11.3 22.5 0.00 0.00 0.00 73 1010.2
20260506134220 15 353 9.7 22.5 0.00 0.00 0.00 72 1010.2
20260506134020 15 1 9.7 19.3 0.00 0.00 0.00 70 1009.9
20260506133720 15 345 12.9 19.3 0.00 0.00 0.00 72 1010.3
20260506133220 14 357 9.7 19.3 0.00 0.00 0.00 71 1010.3
20260506133020 15 356 6.4 11.3 0.00 0.00 0.00 73 1010.0
20260506132720 15 352 9.7 19.3 0.00 0.00 0.00 73 1010.3
20260506132221 15 338 14.5 22.5 0.00 0.00 0.00 70 1010.3
20260506132020 15 346 14.5 22.5 0.00 0.00 0.00 73 1009.9
20260506131721 15 8 9.7 16.1 0.00 0.00 0.00 72 1010.3
20260506131221 15 45 8.0 20.9 0.00 0.00 0.00 71 1010.2
20260506131020 15 341 9.7 20.9 0.00 0.00 0.00 72 1009.9
20260506130721 15 354 12.9 22.5 0.00 0.00 0.00 74 1010.2
20260506130220 14 327 14.5 29.0 0.00 0.00 0.00 73 1010.1
20260506130020 14 1 14.5 29.0 0.00 0.00 0.00 73 1009.9
20260506125720 14 353 14.5 25.7 0.00 0.00 0.00 74 1010.2
20260506125220 14 355 9.7 20.9 0.00 0.00 0.00 73 1010.1
20260506125020 14 7 9.7 24.1 0.00 0.00 0.00 74 1009.8
20260506124720 14 358 11.3 24.1 0.00 0.00 0.00 72 1010.0
20260506124220 14 326 11.3 24.1 0.00 0.00 0.00 76 1010.0
20260506124020 14 1 9.7 14.5 0.00 0.00 0.00 74 1009.8
20260506123720 14 3 11.3 20.9 0.00 0.00 0.00 74 1010.0
20260506123220 14 357 11.3 24.1 0.00 0.00 0.00 74 1010.1
20260506123020 14 349 12.9 24.1 0.00 0.00 0.00 74 1009.8
20260506122720 14 6 9.7 20.9 0.00 0.00 0.00 75 1010.1
20260506122220 14 9 14.5 24.1 0.00 0.00 0.00 75 1010.1
20260506122020 14 345 12.9 24.1 0.00 0.00 0.00 75 1009.8
20260506121720 14 342 12.9 22.5 0.00 0.00 0.00 76 1010.1
20260506121220 14 348 9.7 19.3 0.00 0.00 0.00 76 1010.1
20260506121021 13 348 12.9 19.3 0.00 0.00 0.00 75 1009.7
20260506120220 13 15 8.0 20.9 0.00 0.00 0.00 75 1010.0
20260506120021 13 356 11.3 19.3 0.00 0.00 0.00 76 1009.7
20260506115720 13 357 14.5 22.5 0.00 0.00 0.00 76 1010.0
20260506115220 13 336 14.5 24.1 0.00 0.00 0.00 75 1010.0
20260506115021 13 344 12.9 24.1 0.00 0.00 0.00 75 1009.7
20260506114720 13 4 12.9 19.3 0.00 0.00 0.00 75 1009.9
20260506114219 14 355 14.5 24.1 0.00 0.00 0.00 75 1009.9
20260506113720 14 351 9.7 22.5 0.00 0.00 0.00 73 1009.9
20260506112720 14 334 14.5 25.7 0.00 0.00 0.00 73 1009.9
20260506112020 15 346 14.5 29.0 0.00 0.00 0.00 75 1009.6
20260506111720 14 8 11.3 19.3 0.00 0.00 0.00 75 1009.9
20260506111220 14 355 8.0 24.1 0.00 0.00 0.00 76 1009.8
20260506111021 13 351 11.3 19.3 0.00 0.00 0.00 76 1009.5
20260506110220 13 10 14.5 25.7 0.00 0.00 0.00 76 1009.9
20260506105720 13 349 11.3 20.9 0.00 0.00 0.00 77 1010.0
20260506105220 13 359 11.3 22.5 0.00 0.00 0.00 77 1010.0
20260506105021 13 350 16.1 25.7 0.00 0.00 0.00 77 1009.7
20260506104020 13 16 9.7 19.3 0.00 0.00 0.00 76 1009.7
20260506103220 13 348 11.3 25.7 0.00 0.00 0.00 76 1009.9
20260506103020 13 357 9.7 22.5 0.00 0.00 0.00 77 1009.6
20260506101720 13 332 14.5 22.5 0.00 0.00 0.00 77 1009.9
20260506101020 13 355 11.3 17.7 0.00 0.00 0.00 78 1009.6
20260506100719 13 338 8.0 19.3 0.00 0.00 0.00 77 1009.8
20260506100219 13 349 9.7 22.5 0.00 0.00 0.00 78 1009.8
20260506100020 12 351 11.3 22.5 0.00 0.00 0.00 77 1009.5
20260506095720 13 356 14.5 25.7 0.00 0.00 0.00 78 1009.8
20260506095020 13 5 12.9 24.1 0.00 0.00 0.00 78 1009.5
20260506094220 12 359 12.9 20.9 0.00 0.00 0.00 78 1009.7
20260506094020 12 348 11.3 22.5 0.00 0.00 0.00 78 1009.5
20260506093720 12 351 11.3 20.9 0.00 0.00 0.00 78 1009.8